"Sample Date","Sample Time","Sample Value","Units","Flow Rate","Sample Interval","Number Channels","Micron Size 0","Counts/Channel 0","Micron Size 1","Counts/Channel 1","Micron Size 2","Counts/Channel 2","Micron Size 3","Counts/Channel 3","Micron Size 4","Counts/Channel 4","Micron Size 5","Counts/Channel 5","Micron Size 6","Counts/Channel 6","Micron Size 7","Counts/Channel 7","Micron Size 8","Counts/Channel 8","Micron Size 9","Counts/Channel 9","Micron Size 10","Counts/Channel 10","Micron Size 11","Counts/Channel 11","Micron Size 12","Counts/Channel 12","Micron Size 13","Counts/Channel 13","Micron Size 14","Counts/Channel 14","Micron Size 15","Counts/Channel 15","Micron Size 16","Counts/Channel 16","Micron Size 17","Counts/Channel 17","Micron Size 18","Counts/Channel 18","Micron Size 19","Counts/Channel 19","Micron Size 20","Counts/Channel 20","Micron Size 21","Counts/Channel 21","Micron Size 22","Counts/Channel 22","Micron Size 23","Counts/Channel 23","Micron Size 24","Counts/Channel 24","Micron Size 25","Counts/Channel 25","Micron Size 26","Counts/Channel 26","Micron Size 27","Counts/Channel 27","Micron Size 28","Counts/Channel 28","Micron Size 29","Counts/Channel 29","Micron Size 30","Counts/Channel 30","Micron Size 31","Counts/Channel 31"
"04/05/08","20:00:00",26732.000,"cc",28348.709,6.00,6,0.100,20731.000,0.200,3775.000,0.300,1277.000,0.500,796.000,1.000,153.000,5.000,0
"04/05/08","20:00:06",30431.000,"cc",28335.955,6.00,6,0.100,24027.000,0.200,4187.000,0.300,1262.000,0.500,790.000,1.000,165.000,5.000,0
"04/05/08","20:00:12",28200.000,"cc",28272.320,6.00,6,0.100,23013.000,0.200,3614.000,0.300,941.000,0.500,526.000,1.000,106.000,5.000,0
"04/05/08","20:00:18",31726.000,"cc",28342.184,6.00,6,0.100,26273.000,0.200,3964.000,0.300,889.000,0.500,503.000,1.000,97.000,5.000,0
"04/05/08","20:00:24",34406.000,"cc",28321.639,6.00,6,0.100,28892.000,0.200,4164.000,0.300,795.000,0.500,472.000,1.000,83.000,5.000,0
"04/05/08","20:00:30",32130.000,"cc",28325.699,6.00,6,0.100,26881.000,0.200,3977.000,0.300,787.000,0.500,404.000,1.000,81.000,5.000,0
"04/05/08","20:00:36",34725.000,"cc",28258.979,6.00,6,0.100,27869.000,0.200,4661.000,0.300,1244.000,0.500,793.000,1.000,158.000,5.000,0
"04/05/08","20:00:42",41432.000,"cc",28317.809,6.00,6,0.100,33972.000,0.200,5337.000,0.300,1278.000,0.500,710.000,1.000,135.000,5.000,0
"04/05/08","20:00:48",29598.000,"cc",28338.348,6.00,6,0.100,23593.000,0.200,3992.000,0.300,1164.000,0.500,691.000,1.000,158.000,5.000,0
"04/05/08","20:00:54",30579.000,"cc",28320.898,6.00,6,0.100,24635.000,0.200,3970.000,0.300,1181.000,0.500,669.000,1.000,124.000,5.000,0
"04/05/08","20:01:00",37898.000,"cc",28378.231,6.00,6,0.100,31889.000,0.200,4605.000,0.300,882.000,0.500,438.000,1.000,84.000,5.000,0
"04/05/08","20:01:06",30611.000,"cc",28222.662,6.00,6,0.100,25913.000,0.200,3674.000,0.300,612.000,0.500,333.000,1.000,79.000,5.000,0
"04/05/08","20:01:12",38108.000,"cc",28278.461,6.00,6,0.100,31065.000,0.200,4864.000,0.300,1303.000,0.500,752.000,1.000,124.000,5.000,0
"04/05/08","20:01:18",29520.000,"cc",28362.537,6.00,6,0.100,23679.000,0.200,3945.000,0.300,1067.000,0.500,674.000,1.000,155.000,5.000,0
"04/05/08","20:01:24",41555.000,"cc",28390.162,6.00,6,0.100,34369.000,0.200,5143.000,0.300,1157.000,0.500,752.000,1.000,134.000,5.000,0
"04/05/08","20:01:30",55323.000,"cc",28270.662,6.00,6,0.100,46460.000,0.200,6702.000,0.300,1340.000,0.500,696.000,1.000,125.000,5.000,0
"04/05/08","20:01:36",19411.000,"cc",28273.715,6.00,6,0.100,15903.000,0.200,2488.000,0.300,589.000,0.500,338.000,1.000,93.000,5.000,0
"04/05/08","20:01:42",53074.000,"cc",28346.209,6.00,6,0.100,44967.000,0.200,6325.000,0.300,1122.000,0.500,550.000,1.000,110.000,5.000,0
"04/05/08","20:01:48",39333.000,"cc",28354.203,6.00,6,0.100,32341.000,0.200,5070.000,0.300,1133.000,0.500,665.000,1.000,124.000,5.000,0
"04/05/08","20:01:54",31847.000,"cc",28317.949,6.00,6,0.100,26351.000,0.200,3994.000,0.300,886.000,0.500,495.000,1.000,121.000,5.000,0
"04/05/08","20:02:00",19776.000,"cc",28280.350,6.00,6,0.100,15921.000,0.200,2665.000,0.300,687.000,0.500,414.000,1.000,89.000,5.000,0
"04/05/08","20:02:06",11891.000,"cc",28335.756,6.00,6,0.100,9026.000,0.200,1776.000,0.300,614.000,0.500,392.000,1.000,83.000,5.000,0
"04/05/08","20:02:12",25497.000,"cc",28334.996,6.00,6,0.100,19900.000,0.200,3611.000,0.300,1111.000,0.500,717.000,1.000,158.000,5.000,0
"04/05/08","20:02:18",27931.000,"cc",28328.940,6.00,6,0.100,21719.000,0.200,3919.000,0.300,1305.000,0.500,833.000,1.000,155.000,5.000,0
"04/05/08","20:02:24",42991.000,"cc",28286.705,6.00,6,0.100,35140.000,0.200,5565.000,0.300,1324.000,0.500,796.000,1.000,166.000,5.000,0
"04/05/08","20:02:30",49061.000,"cc",28270.162,6.00,6,0.100,40587.000,0.200,6108.000,0.300,1358.000,0.500,839.000,1.000,169.000,5.000,0
"04/05/08","20:02:36",54662.000,"cc",28377.731,6.00,6,0.100,44918.000,0.200,7023.000,0.300,1624.000,0.500,920.000,1.000,177.000,5.000,0
"04/05/08","20:02:42",47400.000,"cc",28322.045,6.00,6,0.100,38064.000,0.200,6358.000,0.300,1789.000,0.500,1012.000,1.000,177.000,5.000,0
"04/05/08","20:02:48",30655.000,"cc",28311.354,6.00,6,0.100,24247.000,0.200,4274.000,0.300,1248.000,0.500,723.000,1.000,163.000,5.000,0
"04/05/08","20:02:54",39859.000,"cc",28322.459,6.00,6,0.100,31753.000,0.200,5325.000,0.300,1570.000,0.500,1023.000,1.000,188.000,5.000,0
"04/05/08","20:03:00",20448.000,"cc",28325.947,6.00,6,0.100,15456.000,0.200,3072.000,0.300,1059.000,0.500,699.000,1.000,162.000,5.000,0
"04/05/08","20:03:06",41993.000,"cc",28306.738,6.00,6,0.100,33660.000,0.200,5612.000,0.300,1601.000,0.500,922.000,1.000,198.000,5.000,0
"04/05/08","20:03:12",14719.000,"cc",28313.828,6.00,6,0.100,11339.000,0.200,2152.000,0.300,679.000,0.500,470.000,1.000,79.000,5.000,0
"04/05/08","20:03:18",28765.000,"cc",28347.445,6.00,6,0.100,23231.000,0.200,3728.000,0.300,1030.000,0.500,637.000,1.000,139.000,5.000,0
"04/05/08","20:03:24",26693.000,"cc",28325.170,6.00,6,0.100,21288.000,0.200,3646.000,0.300,982.000,0.500,639.000,1.000,138.000,5.000,0
"04/05/08","20:03:30",35363.000,"cc",28416.022,6.00,6,0.100,28826.000,0.200,4622.000,0.300,1100.000,0.500,669.000,1.000,146.000,5.000,0
"04/05/08","20:03:36",52868.000,"cc",28216.363,6.00,6,0.100,43538.000,0.200,6797.000,0.300,1516.000,0.500,838.000,1.000,179.000,5.000,0
"04/05/08","20:03:42",29571.000,"cc",28469.197,6.00,6,0.100,23660.000,0.200,3954.000,0.300,1126.000,0.500,690.000,1.000,141.000,5.000,0
"04/05/08","20:03:48",26188.000,"cc",28274.004,6.00,6,0.100,20760.000,0.200,3644.000,0.300,1007.000,0.500,647.000,1.000,130.000,5.000,0
"04/05/08","20:03:54",37957.000,"cc",28294.119,6.00,6,0.100,31227.000,0.200,4741.000,0.300,1174.000,0.500,685.000,1.000,130.000,5.000,0
"04/05/08","20:04:00",22567.000,"cc",28243.502,6.00,6,0.100,18069.000,0.200,2990.000,0.300,857.000,0.500,553.000,1.000,98.000,5.000,0
"04/05/08","20:04:06",20255.000,"cc",28342.584,6.00,6,0.100,14839.000,0.200,3172.000,0.300,1332.000,0.500,763.000,1.000,149.000,5.000,0
"04/05/08","20:04:12",17364.000,"cc",28287.070,6.00,6,0.100,13355.000,0.200,2521.000,0.300,822.000,0.500,564.000,1.000,102.000,5.000,0
"04/05/08","20:04:18",23374.000,"cc",28283.959,6.00,6,0.100,18525.000,0.200,3194.000,0.300,957.000,0.500,562.000,1.000,136.000,5.000,0
"04/05/08","20:04:24",12535.000,"cc",28303.434,6.00,6,0.100,9874.000,0.200,1711.000,0.300,534.000,0.500,349.000,1.000,67.000,5.000,0
"04/05/08","20:04:30",17573.000,"cc",28363.203,6.00,6,0.100,13664.000,0.200,2483.000,0.300,838.000,0.500,480.000,1.000,108.000,5.000,0
"04/05/08","20:04:36",35436.000,"cc",28347.533,6.00,6,0.100,27905.000,0.200,4815.000,0.300,1552.000,0.500,960.000,1.000,204.000,5.000,0
"04/05/08","20:04:42",27451.000,"cc",28346.016,6.00,6,0.100,21572.000,0.200,3789.000,0.300,1160.000,0.500,753.000,1.000,177.000,5.000,0
"04/05/08","20:04:48",21356.000,"cc",28255.643,6.00,6,0.100,16885.000,0.200,2942.000,0.300,859.000,0.500,545.000,1.000,125.000,5.000,0
"04/05/08","20:04:54",25834.000,"cc",28327.516,6.00,6,0.100,19262.000,0.200,3927.000,0.300,1518.000,0.500,961.000,1.000,166.000,5.000,0
"04/05/08","20:05:00",17008.000,"cc",28338.102,6.00,6,0.100,12203.000,0.200,2817.000,0.300,1133.000,0.500,701.000,1.000,154.000,5.000,0
"04/05/08","20:05:06",23779.000,"cc",28305.229,6.00,6,0.100,17242.000,0.200,3811.000,0.300,1576.000,0.500,963.000,1.000,187.000,5.000,0
"04/05/08","20:05:12",12689.000,"cc",28321.445,6.00,6,0.100,9005.000,0.200,2098.000,0.300,897.000,0.500,577.000,1.000,112.000,5.000,0
"04/05/08","20:05:18",14076.000,"cc",28318.768,6.00,6,0.100,10113.000,0.200,2311.000,0.300,952.000,0.500,571.000,1.000,129.000,5.000,0
"04/05/08","20:05:24",19614.000,"cc",28274.951,6.00,6,0.100,14499.000,0.200,2989.000,0.300,1176.000,0.500,791.000,1.000,159.000,5.000,0
"04/05/08","20:05:30",18787.000,"cc",28315.877,6.00,6,0.100,13452.000,0.200,3061.000,0.300,1309.000,0.500,802.000,1.000,163.000,5.000,0
"04/05/08","20:05:36",24766.000,"cc",28328.139,6.00,6,0.100,17653.000,0.200,3985.000,0.300,1747.000,0.500,1170.000,1.000,211.000,5.000,0
"04/05/08","20:05:42",13825.000,"cc",28293.123,6.00,6,0.100,9747.000,0.200,2270.000,0.300,1015.000,0.500,644.000,1.000,149.000,5.000,0
"04/05/08","20:05:48",18023.000,"cc",28293.106,6.00,6,0.100,12440.000,0.200,3126.000,0.300,1347.000,0.500,931.000,1.000,179.000,5.000,0
"04/05/08","20:05:54",20495.000,"cc",28334.734,6.00,6,0.100,13760.000,0.200,3575.000,0.300,1802.000,0.500,1096.000,1.000,262.000,5.000,0
"04/05/08","20:06:00",17738.000,"cc",28357.529,6.00,6,0.100,12106.000,0.200,3010.000,0.300,1487.000,0.500,927.000,1.000,208.000,5.000,0
"04/05/08","20:06:06",19316.000,"cc",28328.080,6.00,6,0.100,13186.000,0.200,3276.000,0.300,1513.000,0.500,1083.000,1.000,258.000,5.000,0
"04/05/08","20:06:12",19721.000,"cc",28342.740,6.00,6,0.100,13503.000,0.200,3425.000,0.300,1541.000,0.500,1040.000,1.000,212.000,5.000,0
"04/05/08","20:06:18",17035.000,"cc",28322.096,6.00,6,0.100,12209.000,0.200,2769.000,0.300,1154.000,0.500,754.000,1.000,149.000,5.000,0
"04/05/08","20:06:24",15736.000,"cc",28329.598,6.00,6,0.100,10959.000,0.200,2690.000,0.300,1221.000,0.500,705.000,1.000,161.000,5.000,0
"04/05/08","20:06:30",17068.000,"cc",28309.365,6.00,6,0.100,12313.000,0.200,2700.000,0.300,1162.000,0.500,771.000,1.000,122.000,5.000,0
"04/05/08","20:06:36",17056.000,"cc",28304.107,6.00,6,0.100,12669.000,0.200,2661.000,0.300,1031.000,0.500,555.000,1.000,140.000,5.000,0
"04/05/08","20:06:42",18345.000,"cc",28347.799,6.00,6,0.100,13889.000,0.200,2771.000,0.300,972.000,0.500,602.000,1.000,111.000,5.000,0
"04/05/08","20:06:48",16180.000,"cc",28305.561,6.00,6,0.100,11619.000,0.200,2559.000,0.300,1170.000,0.500,683.000,1.000,149.000,5.000,0
"04/05/08","20:06:54",18434.000,"cc",28297.871,6.00,6,0.100,13063.000,0.200,3005.000,0.300,1371.000,0.500,834.000,1.000,161.000,5.000,0
"04/05/08","20:07:00",9751.000,"cc",28327.303,6.00,6,0.100,6825.000,0.200,1669.000,0.300,717.000,0.500,445.000,1.000,95.000,5.000,0
"04/05/08","20:07:06",13434.000,"cc",28347.848,6.00,6,0.100,9850.000,0.200,2052.000,0.300,863.000,0.500,548.000,1.000,121.000,5.000,0
"04/05/08","20:07:12",17594.000,"cc",28265.486,6.00,6,0.100,12765.000,0.200,2808.000,0.300,1125.000,0.500,718.000,1.000,178.000,5.000,0
"04/05/08","20:07:18",16327.000,"cc",28222.295,6.00,6,0.100,11913.000,0.200,2585.000,0.300,1036.000,0.500,656.000,1.000,137.000,5.000,0
"04/05/08","20:07:24",14877.000,"cc",28325.557,6.00,6,0.100,10637.000,0.200,2383.000,0.300,1037.000,0.500,686.000,1.000,134.000,5.000,0
"04/05/08","20:07:30",9146.000,"cc",28324.764,6.00,6,0.100,6792.000,0.200,1438.000,0.300,531.000,0.500,323.000,1.000,62.000,5.000,0
"04/05/08","20:07:36",8302.000,"cc",28352.926,6.00,6,0.100,6043.000,0.200,1292.000,0.300,545.000,0.500,366.000,1.000,56.000,5.000,0
"04/05/08","20:07:42",15201.000,"cc",28314.453,6.00,6,0.100,10454.000,0.200,2613.000,0.300,1180.000,0.500,811.000,1.000,143.000,5.000,0
"04/05/08","20:07:48",15378.000,"cc",28310.195,6.00,6,0.100,9945.000,0.200,2806.000,0.300,1409.000,0.500,999.000,1.000,219.000,5.000,0
"04/05/08","20:07:54",18836.000,"cc",28349.330,6.00,6,0.100,12707.000,0.200,3323.000,0.300,1583.000,0.500,1020.000,1.000,203.000,5.000,0
"04/05/08","20:08:00",22099.000,"cc",28356.225,6.00,6,0.100,14947.000,0.200,3834.000,0.300,1899.000,0.500,1180.000,1.000,239.000,5.000,0
"04/05/08","20:08:06",16281.000,"cc",28272.979,6.00,6,0.100,10746.000,0.200,2862.000,0.300,1458.000,0.500,1016.000,1.000,199.000,5.000,0
"04/05/08","20:08:12",10582.000,"cc",28270.293,6.00,6,0.100,7075.000,0.200,1857.000,0.300,902.000,0.500,620.000,1.000,128.000,5.000,0
"04/05/08","20:08:18",23703.000,"cc",28341.361,6.00,6,0.100,16767.000,0.200,3909.000,0.300,1670.000,0.500,1108.000,1.000,249.000,5.000,0
"04/05/08","20:08:24",8623.000,"cc",28333.916,6.00,6,0.100,5808.000,0.200,1548.000,0.300,702.000,0.500,463.000,1.000,102.000,5.000,0
"04/05/08","20:08:30",25617.000,"cc",28318.598,6.00,6,0.100,19646.000,0.200,3691.000,0.300,1367.000,0.500,772.000,1.000,141.000,5.000,0
"04/05/08","20:08:36",14501.000,"cc",28325.072,6.00,6,0.100,10764.000,0.200,2276.000,0.300,870.000,0.500,503.000,1.000,88.000,5.000,0
"04/05/08","20:08:42",9518.000,"cc",28276.703,6.00,6,0.100,6685.000,0.200,1561.000,0.300,718.000,0.500,473.000,1.000,81.000,5.000,0
"04/05/08","20:08:48",20692.000,"cc",28332.764,6.00,6,0.100,15790.000,0.200,3042.000,0.300,1072.000,0.500,655.000,1.000,133.000,5.000,0
"04/05/08","20:08:54",27546.000,"cc",28348.297,6.00,6,0.100,22365.000,0.200,3589.000,0.300,968.000,0.500,510.000,1.000,114.000,5.000,0
"04/05/08","20:09:00",16048.000,"cc",28330.293,6.00,6,0.100,12623.000,0.200,2257.000,0.300,654.000,0.500,437.000,1.000,77.000,5.000,0
"04/05/08","20:09:06",27647.000,"cc",28302.871,6.00,6,0.100,22440.000,0.200,3622.000,0.300,979.000,0.500,498.000,1.000,108.000,5.000,0
"04/05/08","20:09:12",21757.000,"cc",28277.486,6.00,6,0.100,17241.000,0.200,3009.000,0.300,875.000,0.500,518.000,1.000,114.000,5.000,0
"04/05/08","20:09:18",10387.000,"cc",28365.772,6.00,6,0.100,7894.000,0.200,1510.000,0.300,551.000,0.500,360.000,1.000,72.000,5.000,0
"04/05/08","20:09:24",10012.000,"cc",28346.010,6.00,6,0.100,7461.000,0.200,1546.000,0.300,556.000,0.500,373.000,1.000,76.000,5.000,0
"04/05/08","20:09:30",15326.000,"cc",28261.488,6.00,6,0.100,11887.000,0.200,2168.000,0.300,727.000,0.500,464.000,1.000,80.000,5.000,0
"04/05/08","20:09:36",13930.000,"cc",28340.531,6.00,6,0.100,10501.000,0.200,2150.000,0.300,707.000,0.500,468.000,1.000,104.000,5.000,0
"04/05/08","20:09:42",8081.000,"cc",28308.414,6.00,6,0.100,5941.000,0.200,1294.000,0.300,458.000,0.500,323.000,1.000,65.000,5.000,0
"04/05/08","20:09:48",15046.000,"cc",28348.744,6.00,6,0.100,10937.000,0.200,2427.000,0.300,938.000,0.500,627.000,1.000,117.000,5.000,0
"04/05/08","20:09:54",9309.000,"cc",28364.498,6.00,6,0.100,6542.000,0.200,1541.000,0.300,719.000,0.500,433.000,1.000,74.000,5.000,0
"04/05/08","20:10:00",7937.000,"cc",28343.836,6.00,6,0.100,5393.000,0.200,1437.000,0.300,641.000,0.500,378.000,1.000,88.000,5.000,0
"04/05/08","20:10:06",11802.000,"cc",28327.740,6.00,6,0.100,8102.000,0.200,2065.000,0.300,944.000,0.500,600.000,1.000,91.000,5.000,0
"04/05/08","20:10:12",10469.000,"cc",28248.168,6.00,6,0.100,7338.000,0.200,1778.000,0.300,764.000,0.500,504.000,1.000,85.000,5.000,0
"04/05/08","20:10:18",13333.000,"cc",28310.039,6.00,6,0.100,9219.000,0.200,2310.000,0.300,1048.000,0.500,646.000,1.000,110.000,5.000,0
"04/05/08","20:10:24",18407.000,"cc",28293.004,6.00,6,0.100,13005.000,0.200,2967.000,0.300,1364.000,0.500,890.000,1.000,181.000,5.000,0
"04/05/08","20:10:30",12086.000,"cc",28260.682,6.00,6,0.100,7990.000,0.200,2189.000,0.300,1070.000,0.500,694.000,1.000,143.000,5.000,0
"04/05/08","20:10:36",12286.000,"cc",28355.816,6.00,6,0.100,7999.000,0.200,2239.000,0.300,1160.000,0.500,739.000,1.000,149.000,5.000,0
"04/05/08","20:10:42",12600.000,"cc",28378.443,6.00,6,0.100,8182.000,0.200,2281.000,0.300,1189.000,0.500,786.000,1.000,162.000,5.000,0
"04/05/08","20:10:48",10318.000,"cc",28305.791,6.00,6,0.100,6881.000,0.200,1804.000,0.300,921.000,0.500,587.000,1.000,125.000,5.000,0
"04/05/08","20:10:54",7647.000,"cc",28298.990,6.00,6,0.100,5214.000,0.200,1374.000,0.300,605.000,0.500,378.000,1.000,76.000,5.000,0
"04/05/08","20:11:00",7069.000,"cc",28295.020,6.00,6,0.100,4924.000,0.200,1201.000,0.300,505.000,0.500,365.000,1.000,74.000,5.000,0
"04/05/08","20:11:06",6182.000,"cc",28341.338,6.00,6,0.100,4341.000,0.200,1014.000,0.300,467.000,0.500,307.000,1.000,53.000,5.000,0
"04/05/08","20:11:12",8928.000,"cc",28286.572,6.00,6,0.100,6090.000,0.200,1565.000,0.300,690.000,0.500,479.000,1.000,104.000,5.000,0
"04/05/08","20:11:18",8686.000,"cc",28310.820,6.00,6,0.100,5788.000,0.200,1585.000,0.300,756.000,0.500,456.000,1.000,101.000,5.000,0
"04/05/08","20:11:24",14388.000,"cc",28302.340,6.00,6,0.100,9413.000,0.200,2568.000,0.300,1364.000,0.500,849.000,1.000,194.000,5.000,0
"04/05/08","20:11:30",11004.000,"cc",28354.941,6.00,6,0.100,7374.000,0.200,1960.000,0.300,960.000,0.500,605.000,1.000,105.000,5.000,0
"04/05/08","20:11:36",10272.000,"cc",28356.031,6.00,6,0.100,6698.000,0.200,1844.000,0.300,934.000,0.500,660.000,1.000,136.000,5.000,0
"04/05/08","20:11:42",11008.000,"cc",28270.479,6.00,6,0.100,7181.000,0.200,2020.000,0.300,1028.000,0.500,635.000,1.000,144.000,5.000,0
"04/05/08","20:11:48",10500.000,"cc",28285.844,6.00,6,0.100,6774.000,0.200,1975.000,0.300,943.000,0.500,665.000,1.000,143.000,5.000,0
"04/05/08","20:11:54",7703.000,"cc",28332.496,6.00,6,0.100,5033.000,0.200,1395.000,0.300,714.000,0.500,477.000,1.000,84.000,5.000,0
"04/05/08","20:12:00",6588.000,"cc",28344.717,6.00,6,0.100,4362.000,0.200,1163.000,0.300,565.000,0.500,403.000,1.000,95.000,5.000,0
"04/05/08","20:12:06",6882.000,"cc",28323.170,6.00,6,0.100,4472.000,0.200,1242.000,0.300,668.000,0.500,415.000,1.000,85.000,5.000,0
"04/05/08","20:12:12",7821.000,"cc",28303.711,6.00,6,0.100,5145.000,0.200,1408.000,0.300,706.000,0.500,459.000,1.000,103.000,5.000,0
"04/05/08","20:12:18",7117.000,"cc",28270.785,6.00,6,0.100,4602.000,0.200,1373.000,0.300,647.000,0.500,412.000,1.000,83.000,5.000,0
"04/05/08","20:12:24",7255.000,"cc",28378.164,6.00,6,0.100,4786.000,0.200,1335.000,0.300,650.000,0.500,409.000,1.000,75.000,5.000,0
"04/05/08","20:12:30",6667.000,"cc",28322.705,6.00,6,0.100,4361.000,0.200,1221.000,0.300,573.000,0.500,422.000,1.000,90.000,5.000,0
"04/05/08","20:12:36",5845.000,"cc",28338.135,6.00,6,0.100,3784.000,0.200,1144.000,0.300,517.000,0.500,346.000,1.000,54.000,5.000,0
"04/05/08","20:12:42",7705.000,"cc",28308.188,6.00,6,0.100,4864.000,0.200,1472.000,0.300,744.000,0.500,498.000,1.000,127.000,5.000,0
"04/05/08","20:12:48",6737.000,"cc",28217.809,6.00,6,0.100,4313.000,0.200,1344.000,0.300,601.000,0.500,384.000,1.000,95.000,5.000,0
"04/05/08","20:12:54",8550.000,"cc",28301.570,6.00,6,0.100,5552.000,0.200,1591.000,0.300,749.000,0.500,566.000,1.000,92.000,5.000,0
"04/05/08","20:13:00",4965.000,"cc",28307.791,6.00,6,0.100,3309.000,0.200,913.000,0.300,403.000,0.500,273.000,1.000,67.000,5.000,0
"04/05/08","20:13:06",4102.000,"cc",28359.678,6.00,6,0.100,2893.000,0.200,699.000,0.300,307.000,0.500,161.000,1.000,42.000,5.000,0
"04/05/08","20:13:12",4866.000,"cc",28320.893,6.00,6,0.100,3371.000,0.200,835.000,0.300,354.000,0.500,256.000,1.000,50.000,5.000,0
"04/05/08","20:13:18",4117.000,"cc",28299.395,6.00,6,0.100,2882.000,0.200,680.000,0.300,295.000,0.500,215.000,1.000,45.000,5.000,0
"04/05/08","20:13:24",4251.000,"cc",28380.682,6.00,6,0.100,2965.000,0.200,704.000,0.300,331.000,0.500,208.000,1.000,43.000,5.000,0
"04/05/08","20:13:30",4235.000,"cc",28318.494,6.00,6,0.100,2944.000,0.200,723.000,0.300,326.000,0.500,201.000,1.000,41.000,5.000,0
"04/05/08","20:13:36",4159.000,"cc",28277.754,6.00,6,0.100,2904.000,0.200,659.000,0.300,339.000,0.500,206.000,1.000,51.000,5.000,0
"04/05/08","20:13:42",5311.000,"cc",28302.633,6.00,6,0.100,3442.000,0.200,964.000,0.300,532.000,0.500,324.000,1.000,49.000,5.000,0
"04/05/08","20:13:48",3695.000,"cc",28340.029,6.00,6,0.100,2680.000,0.200,600.000,0.300,202.000,0.500,182.000,1.000,31.000,5.000,0
"04/05/08","20:13:54",3685.000,"cc",28369.977,6.00,6,0.100,2650.000,0.200,574.000,0.300,242.000,0.500,181.000,1.000,38.000,5.000,0
"04/05/08","20:14:00",3573.000,"cc",28268.818,6.00,6,0.100,2597.000,0.200,552.000,0.300,232.000,0.500,162.000,1.000,30.000,5.000,0
"04/05/08","20:14:06",3745.000,"cc",28285.248,6.00,6,0.100,2743.000,0.200,597.000,0.300,205.000,0.500,161.000,1.000,39.000,5.000,0
"04/05/08","20:14:12",4691.000,"cc",28316.645,6.00,6,0.100,3104.000,0.200,814.000,0.300,410.000,0.500,314.000,1.000,49.000,5.000,0
"04/05/08","20:14:18",4545.000,"cc",28344.131,6.00,6,0.100,3013.000,0.200,823.000,0.300,384.000,0.500,274.000,1.000,51.000,5.000,0
"04/05/08","20:14:24",5230.000,"cc",28278.971,6.00,6,0.100,3399.000,0.200,1009.000,0.300,429.000,0.500,328.000,1.000,65.000,5.000,0
"04/05/08","20:14:30",4719.000,"cc",28294.838,6.00,6,0.100,3164.000,0.200,834.000,0.300,405.000,0.500,262.000,1.000,54.000,5.000,0
"04/05/08","20:14:36",5052.000,"cc",28340.377,6.00,6,0.100,3309.000,0.200,944.000,0.300,434.000,0.500,302.000,1.000,63.000,5.000,0
"04/05/08","20:14:42",7231.000,"cc",28410.641,6.00,6,0.100,4407.000,0.200,1511.000,0.300,744.000,0.500,480.000,1.000,89.000,5.000,0
"04/05/08","20:14:48",7358.000,"cc",28234.645,6.00,6,0.100,4383.000,0.200,1521.000,0.300,820.000,0.500,525.000,1.000,109.000,5.000,0
"04/05/08","20:14:54",7195.000,"cc",28267.877,6.00,6,0.100,4694.000,0.200,1363.000,0.300,675.000,0.500,374.000,1.000,89.000,5.000,0
"04/05/08","20:15:00",9153.000,"cc",28316.873,6.00,6,0.100,5949.000,0.200,1764.000,0.300,820.000,0.500,514.000,1.000,106.000,5.000,0
"04/05/08","20:15:06",9011.000,"cc",28355.678,6.00,6,0.100,5817.000,0.200,1735.000,0.300,831.000,0.500,529.000,1.000,99.000,5.000,0
"04/05/08","20:15:12",9525.000,"cc",28323.902,6.00,6,0.100,5733.000,0.200,1971.000,0.300,1057.000,0.500,629.000,1.000,135.000,5.000,0
"04/05/08","20:15:18",8728.000,"cc",28358.971,6.00,6,0.100,5277.000,0.200,1782.000,0.300,930.000,0.500,603.000,1.000,136.000,5.000,0
"04/05/08","20:15:24",5244.000,"cc",28363.506,6.00,6,0.100,3426.000,0.200,988.000,0.300,461.000,0.500,297.000,1.000,72.000,5.000,0
"04/05/08","20:15:30",5262.000,"cc",28276.102,6.00,6,0.100,3414.000,0.200,995.000,0.300,446.000,0.500,331.000,1.000,76.000,5.000,0
"04/05/08","20:15:36",4495.000,"cc",28288.740,6.00,6,0.100,3059.000,0.200,802.000,0.300,350.000,0.500,223.000,1.000,61.000,5.000,0
"04/05/08","20:15:42",3542.000,"cc",28352.025,6.00,6,0.100,2451.000,0.200,628.000,0.300,228.000,0.500,190.000,1.000,45.000,5.000,0
"04/05/08","20:15:48",7910.000,"cc",28288.051,6.00,6,0.100,5066.000,0.200,1517.000,0.300,757.000,0.500,478.000,1.000,92.000,5.000,0
"04/05/08","20:15:54",4438.000,"cc",28304.342,6.00,6,0.100,2968.000,0.200,802.000,0.300,359.000,0.500,258.000,1.000,51.000,5.000,0
"04/05/08","20:16:00",5210.000,"cc",28262.848,6.00,6,0.100,3417.000,0.200,967.000,0.300,464.000,0.500,296.000,1.000,66.000,5.000,0
"04/05/08","20:16:06",4539.000,"cc",28310.674,6.00,6,0.100,3069.000,0.200,802.000,0.300,385.000,0.500,232.000,1.000,51.000,5.000,0
"04/05/08","20:16:12",4181.000,"cc",28364.793,6.00,6,0.100,2905.000,0.200,720.000,0.300,286.000,0.500,228.000,1.000,42.000,5.000,0
"04/05/08","20:16:18",4306.000,"cc",28392.104,6.00,6,0.100,2869.000,0.200,788.000,0.300,343.000,0.500,245.000,1.000,61.000,5.000,0
"04/05/08","20:16:24",5941.000,"cc",28332.754,6.00,6,0.100,3740.000,0.200,1167.000,0.300,576.000,0.500,384.000,1.000,74.000,5.000,0
"04/05/08","20:16:30",4397.000,"cc",28260.736,6.00,6,0.100,2963.000,0.200,774.000,0.300,352.000,0.500,252.000,1.000,56.000,5.000,0
"04/05/08","20:16:36",4267.000,"cc",28338.279,6.00,6,0.100,2881.000,0.200,746.000,0.300,334.000,0.500,246.000,1.000,60.000,5.000,0
"04/05/08","20:16:42",3863.000,"cc",28369.166,6.00,6,0.100,2702.000,0.200,658.000,0.300,275.000,0.500,185.000,1.000,43.000,5.000,0